GFSNIL_sfc_rhum_003.txt.gz
RH
26 24 21 20 19 17 17 18 19 21 20 20 20 21 23 27 28 28 31 36 35 32
20 21 21 18 17 18 17 15 18 20 20 20 20 20 21 22 24 25 28 31 34 33
18 17 16 17 17 18 17 17 19 19 18 19 18 18 20 23 23 24 25 26 30 31
17 16 15 15 16 16 17 17 18 18 18 18 18 18 19 21 22 22 26 28 29 32
18 17 16 15 16 15 16 17 18 18 18 18 18 19 20 21 22 22 25 27 30 31
18 18 17 17 17 17 18 18 19 19 20 20 23 23 21 21 20 24 27 30 32 34
19 20 20 20 20 20 20 21 22 22 22 24 23 24 24 22 29 32 32 36 37 36
22 22 22 23 22 22 23 23 24 24 25 25 25 21 28 35 39 43 42 40 37 37
22 23 23 24 24 24 25 25 24 26 29 36 23 36 41 44 46 46 45 44 38 36
22 23 24 23 22 25 25 25 27 26 26 25 25 38 43 50 48 50 45 41 39 36
22 22 22 22 23 23 23 26 26 26 25 26 26 39 45 52 49 45 42 38 38 40
20 22 22 23 23 24 26 28 27 25 26 26 25 40 45 52 48 44 42 39 41 46
22 23 22 23 25 27 28 27 25 26 24 30 26 40 49 49 47 48 48 46 52 57
22 21 22 25 29 32 29 28 26 25 23 24 31 36 47 52 47 50 54 66 56 48

GFSNIL_sfc_rhum_006.txt.gz
RH
35 37 33 29 30 28 29 29 28 30 29 28 29 31 32 39 42 34 45 42 44 42
29 29 29 26 27 29 26 19 26 28 27 28 28 28 29 34 34 35 38 43 46 40
24 23 23 24 23 24 24 25 26 26 26 27 27 27 28 34 34 31 31 31 35 33
24 23 22 23 23 23 24 24 25 25 26 26 27 26 28 30 28 29 29 32 30 34
25 24 23 23 23 23 24 24 25 26 27 27 28 29 30 30 30 29 32 34 37 38
27 26 26 26 25 25 26 27 28 29 31 31 33 32 32 31 30 37 38 41 45 46
28 28 29 29 29 29 28 30 32 33 33 36 33 32 32 32 40 42 44 50 52 50
30 30 30 31 32 31 33 33 35 34 36 37 34 27 33 37 44 50 52 54 51 50
30 29 31 32 33 33 36 36 35 36 40 47 28 38 41 41 44 50 54 58 54 46
28 29 32 31 31 34 35 35 37 38 37 36 36 40 42 44 42 54 56 54 52 44
28 28 30 31 33 34 35 37 39 38 37 36 31 39 41 44 49 54 56 53 50 50
27 30 30 33 34 35 39 42 42 35 34 34 30 40 41 44 49 52 54 52 52 55
29 30 31 33 36 40 45 40 35 34 32 37 30 42 45 45 45 52 54 56 60 65
29 30 30 36 42 47 47 42 40 35 31 32 38 43 49 52 47 52 57 66 69 62

GFSNIL_sfc_rhum_009.txt.gz
RH
36 38 35 32 32 32 32 31 31 31 31 30 30 32 33 40 42 36 46 44 46 38
32 30 31 30 31 32 29 23 28 29 29 29 30 31 32 36 37 39 43 47 48 51
26 27 27 26 26 25 26 26 28 28 28 29 30 31 32 38 39 38 41 34 42 42
26 25 25 25 25 25 26 26 27 28 30 31 32 32 34 36 35 36 38 41 42 44
27 26 26 26 26 27 27 28 29 31 32 32 34 35 37 39 39 40 44 47 50 51
29 29 29 29 28 28 29 31 32 33 35 36 39 41 40 40 39 42 48 53 57 57
31 31 31 31 32 33 32 33 35 36 37 41 40 40 40 39 44 50 51 58 61 56
34 32 33 34 35 34 35 35 38 38 40 43 40 28 37 39 46 55 58 61 55 55
34 31 34 34 34 34 37 37 38 40 45 50 31 42 44 42 42 50 58 63 55 56
32 32 33 32 32 35 36 40 42 43 44 42 40 43 44 45 39 55 64 58 60 56
32 31 31 32 34 37 39 43 46 46 44 43 35 44 44 46 44 54 59 62 61 60
29 30 32 34 37 38 44 50 49 45 44 44 40 44 48 48 49 50 52 54 56 63
30 31 33 34 38 44 50 48 45 41 43 45 39 52 55 55 54 58 59 59 68 70
30 31 32 39 45 50 52 51 51 47 44 44 48 55 59 60 54 58 67 82 75 70

GFSNIL_sfc_rhum_012.txt.gz
RH
37 40 38 35 35 35 34 34 32 32 31 31 32 34 36 43 44 39 47 45 47 50
35 34 34 32 32 33 31 25 29 30 30 32 32 34 35 40 40 42 45 49 51 53
30 30 29 29 28 27 28 28 29 30 32 33 34 35 37 42 44 43 46 42 46 49
28 28 27 26 27 27 28 29 30 31 34 35 36 37 39 41 41 41 45 46 50 55
29 28 28 28 28 29 29 30 32 34 36 37 39 40 43 45 45 46 47 50 57 61
31 30 30 30 30 31 32 33 35 37 38 40 44 45 45 46 46 47 49 55 62 65
33 32 32 34 34 34 35 35 38 39 40 44 45 44 45 45 50 52 52 59 65 66
36 35 36 36 35 35 37 38 38 39 43 46 43 29 43 46 52 56 58 61 61 61
37 36 37 35 35 36 38 38 40 44 49 54 33 46 47 46 46 50 56 58 59 58
36 34 35 33 34 36 37 41 45 47 48 48 47 46 49 52 49 55 59 62 60 57
35 33 33 34 35 37 40 45 49 50 49 49 40 48 53 58 58 63 62 62 63 66
31 32 33 35 37 38 44 52 53 51 50 50 49 49 55 57 60 61 64 61 64 71
34 33 34 35 39 44 52 54 52 48 47 49 47 53 57 56 56 64 64 65 78 75
33 33 33 41 48 52 55 54 52 49 50 49 52 60 58 58 54 60 71 84 70 63

GFSNIL_sfc_rhum_015.txt.gz
RH
43 45 43 41 40 36 35 35 33 32 32 31 33 36 38 45 46 42 50 47 49 52
39 38 36 34 34 36 34 27 30 31 31 33 35 37 39 43 44 46 48 52 53 53
34 33 33 32 30 30 29 29 30 32 34 36 38 39 41 46 48 47 50 46 50 53
32 30 28 28 29 29 29 30 31 34 37 38 40 41 45 46 44 47 50 51 52 58
31 29 29 29 30 30 30 33 35 37 39 40 43 46 47 48 49 50 53 53 58 62
32 31 31 32 32 32 33 36 38 40 42 43 48 48 47 47 49 52 54 58 62 63
34 34 34 35 35 36 37 39 41 42 43 47 47 46 44 50 55 58 55 60 64 66
37 37 38 38 38 38 40 39 42 44 46 50 44 31 52 56 58 60 60 61 63 61
40 39 39 38 38 38 40 41 46 48 52 54 35 47 51 53 64 62 63 67 63 64
39 38 38 36 36 37 40 48 50 50 51 50 50 48 52 55 65 68 71 69 66 63
39 36 36 36 37 40 44 49 53 52 51 52 44 53 54 57 66 72 72 70 69 70
34 35 35 36 39 43 49 54 53 54 52 52 54 55 57 58 65 66 71 68 68 70
36 35 36 38 45 48 53 54 53 49 51 55 55 58 59 57 58 66 64 78 77 68
36 36 39 48 52 54 58 56 57 56 59 58 59 68 60 59 57 61 63 62 68 65

GFSNIL_sfc_rhum_018.txt.gz
RH
42 43 43 47 43 39 38 38 34 34 33 34 36 38 40 48 48 45 52 50 51 54
44 42 43 39 37 39 36 30 32 33 34 36 38 39 42 47 47 50 52 54 56 57
38 36 35 34 35 32 31 32 33 35 36 38 40 42 45 49 50 50 53 50 54 55
34 32 30 30 32 31 32 33 35 37 39 40 43 45 47 48 46 51 54 55 57 58
31 30 30 31 32 32 34 36 38 40 41 43 46 48 48 48 51 54 58 59 61 63
32 32 33 34 35 35 37 39 40 42 44 46 49 47 46 48 54 58 61 63 66 67
35 35 36 38 38 39 40 40 43 45 46 48 47 44 43 56 62 64 61 64 67 68
39 40 42 41 42 42 41 42 46 46 48 50 44 31 56 62 66 70 68 68 65 65
43 43 44 42 42 41 43 46 48 49 52 53 36 48 51 54 70 68 68 72 67 69
43 42 43 39 37 40 44 49 52 52 52 51 52 51 54 55 66 70 75 73 71 66
43 41 39 36 37 42 48 53 55 54 53 55 47 57 55 58 69 73 74 73 74 76
38 38 36 37 42 48 54 56 57 55 54 58 61 59 59 60 71 71 71 68 74 78
38 36 38 44 49 54 58 55 53 51 57 62 64 62 61 58 64 76 66 68 77 68
37 38 46 52 56 58 59 58 62 62 68 67 66 73 62 60 60 64 62 63 73 71

GFSNIL_sfc_rhum_021.txt.gz
RH
33 33 33 34 31 28 28 29 28 28 28 28 30 32 32 36 36 36 37 40 38 36
36 36 37 33 30 29 28 26 27 27 29 30 32 32 33 31 33 35 38 40 42 41
36 33 32 30 29 28 26 26 28 29 30 31 32 33 33 33 36 36 38 38 41 42
32 30 27 26 26 25 25 27 28 30 30 32 32 32 31 32 35 39 42 43 44 46
28 27 25 25 25 25 27 29 30 30 32 32 33 32 30 35 40 43 46 47 48 48
27 26 26 26 27 28 30 31 32 33 33 33 35 32 31 37 43 47 49 49 51 49
28 28 28 29 30 32 31 33 35 34 34 36 34 32 34 44 48 50 50 52 51 50
32 32 33 34 35 34 35 36 36 35 37 37 33 28 44 49 51 54 54 53 50 50
35 35 37 36 35 37 39 38 37 38 40 41 31 48 52 52 50 53 54 53 50 51
36 35 37 34 35 38 38 39 39 38 38 38 40 52 55 54 50 54 54 52 52 52
36 35 33 32 35 37 38 39 38 38 39 41 41 58 56 57 52 54 53 53 54 56
32 32 30 34 37 38 40 40 40 39 43 45 49 59 59 56 53 52 53 52 54 58
32 30 33 37 40 42 42 39 39 42 46 55 49 61 60 56 51 55 54 53 51 62
32 35 39 42 43 43 43 44 46 49 51 51 54 54 62 60 52 55 58 55 56 54

GFSNIL_sfc_rhum_027.txt.gz
RH
50 48 44 40 38 39 38 34 35 27 26 26 26 26 28 31 30 30 32 36 36 32
50 47 45 37 32 30 28 29 26 26 24 24 24 24 25 24 26 27 30 35 39 36
44 40 36 33 31 32 27 24 26 25 24 24 24 24 24 26 26 26 29 31 33 36
42 40 37 34 30 27 26 25 24 24 23 23 23 22 22 23 25 28 31 33 36 37
40 36 34 29 26 26 24 24 22 22 21 21 22 21 21 23 25 29 32 34 37 38
35 32 30 32 28 28 25 24 22 22 23 22 24 23 21 23 26 30 33 36 38 39
34 35 37 30 29 26 24 24 24 23 23 25 24 24 24 29 34 36 35 36 39 39
36 38 34 31 30 26 26 25 25 25 27 27 25 22 36 38 39 39 38 37 36 38
31 31 32 30 30 31 30 28 26 28 35 42 23 45 50 52 45 40 38 40 37 36
39 35 34 31 31 33 31 29 29 28 28 27 28 43 52 54 48 43 40 40 41 39
35 34 33 30 31 29 28 29 27 28 28 29 30 46 52 56 48 40 39 38 40 43
28 28 28 30 28 28 29 29 28 28 30 30 28 44 50 54 45 38 38 37 39 41
26 27 28 30 30 28 28 28 28 30 29 30 33 32 44 52 45 42 43 40 41 47
26 27 29 30 29 30 28 29 29 31 28 28 30 35 44 53 50 49 51 53 46 44

GFSNIL_sfc_rhum_030.txt.gz
RH
71 61 58 54 47 49 57 56 39 35 36 42 40 41 43 47 46 43 47 43 47 48
58 57 55 59 54 57 50 41 36 35 33 33 37 37 38 42 40 37 43 45 47 51
56 54 52 52 48 42 35 31 31 33 33 36 35 34 36 37 35 35 42 43 43 48
49 46 40 42 34 35 36 30 31 34 32 35 34 32 34 33 34 36 40 43 46 49
52 40 40 38 33 35 42 28 31 28 28 32 31 29 29 30 30 37 41 44 48 50
46 38 34 35 36 39 30 27 26 27 28 32 34 30 28 29 34 38 42 47 50 52
41 37 31 37 36 30 28 27 28 29 31 35 32 29 29 35 42 46 45 49 52 52
39 36 35 36 35 34 31 29 30 32 35 35 31 29 48 51 54 52 51 50 48 49
37 38 42 44 50 54 38 31 33 36 47 49 25 46 48 53 58 56 54 55 53 49
47 54 60 62 50 37 34 36 37 37 36 34 46 48 49 51 59 62 62 58 54 51
72 71 62 60 45 49 46 39 37 35 32 35 39 46 47 52 62 61 57 54 52 55
83 75 61 50 37 37 36 37 34 33 35 36 41 47 44 53 64 58 56 50 53 55
65 50 37 38 37 36 36 34 35 37 36 41 42 36 40 51 62 66 65 62 60 57
36 37 36 36 35 34 34 35 38 39 39 38 39 43 39 45 59 68 70 73 68 62